Temperature
22 22 21 21 24 25 27 29 29 30 30 29 29 28 27 26 25 23 23 22 22 21 21 20 20 20 20 19 19 19 19 19 19 19 19 19 19 19 19 19 19 19 19 19 18 19 19 19 18
22 21 21 23 25 26 27 29 29 29 30 29 28 28 27 25 24 23 22 22 22 21 21 21 20 20 20 20 19 19 19 19 19 19 19 19 19 19 19 19 19 19 19 19 19 19 19 19 18
22 22 23 25 27 27 28 29 29 30 29 29 28 27 26 25 24 23 22 22 22 21 21 21 20 20 20 20 19 19 19 19 19 19 19 19 19 19 19 19 19 19 19 19 19 19 19 18 18
22 24 25 27 28 29 29 30 30 30 29 29 28 26 25 24 24 23 23 22 22 21 21 21 21 20 20 20 19 19 19 19 19 19 19 19 19 19 19 19 19 19 19 19 19 19 19 18 18
24 25 26 28 29 30 30 31 30 30 29 29 27 26 25 24 24 23 23 22 22 21 21 21 21 20 20 20 20 19 19 19 19 19 19 19 19 19 19 19 19 19 19 19 19 19 19 19 18
26 27 27 28 29 30 30 30 30 30 29 28 27 26 24 24 24 23 23 23 22 21 21 21 21 20 20 20 20 20 19 19 19 19 19 19 19 19 19 19 19 19 19 19 19 19 19 19 19
27 27 28 29 29 30 30 30 30 30 29 29 28 26 24 24 24 23 23 23 22 22 21 21 21 21 20 20 20 20 19 19 19 19 19 19 19 19 19 19 19 19 19 19 19 19 19 19 18
28 29 29 30 30 29 31 30 30 29 29 28 27 26 25 24 24 23 23 22 22 22 21 21 21 20 20 20 20 20 19 19 19 19 19 19 19 19 19 19 19 19 19 19 19 19 19 18 18
30 29 29 30 30 30 31 30 29 29 28 27 27 26 25 24 24 23 23 22 22 22 21 21 21 21 20 20 20 20 19 19 19 19 19 19 19 19 19 19 19 19 19 19 19 19 19 19 18
30 29 30 31 31 31 31 30 30 29 28 27 26 25 25 24 24 24 23 22 22 21 21 21 21 21 20 20 20 20 19 19 19 19 19 19 19 19 18 19 19 19 19 19 19 19 19 19 18
31 30 32 32 31 31 31 30 30 30 28 27 26 25 25 24 24 24 23 22 22 21 21 21 20 20 20 20 20 20 19 19 19 19 19 19 18 18 18 18 18 18 18 18 18 19 19 18 18
32 32 32 32 31 31 31 30 30 29 28 27 26 26 25 25 24 24 23 22 22 21 21 21 20 20 20 20 20 19 19 19 19 19 19 19 19 19 19 18 18 18 18 18 18 18 18 18 18
32 32 32 31 31 31 31 30 29 28 28 26 26 26 25 25 24 24 23 22 22 21 21 20 20 20 20 20 19 19 19 19 19 19 19 18 18 19 19 18 18 18 18 18 18 18 18 18 18
32 32 32 32 31 31 31 30 29 28 27 27 26 26 25 25 24 24 23 22 22 21 21 20 20 20 19 19 19 19 19 19 19 19 19 19 18 18 18 19 19 19 18 18 18 18 18 18 18
31 31 32 32 32 31 31 29 29 28 28 27 26 26 25 25 24 24 23 22 22 21 21 20 20 20 20 19 19 19 19 19 19 19 19 19 18 18 18 18 18 19 18 18 18 18 18 18 18
31 31 31 32 32 32 30 28 29 28 28 27 27 26 25 25 24 24 23 22 22 21 21 20 20 20 20 20 19 19 19 19 19 19 19 19 19 18 18 18 18 18 18 18 18 18 18 18 18
30 31 31 32 33 32 31 29 29 29 29 28 27 26 26 25 24 24 23 22 22 21 21 20 20 20 20 20 19 19 19 19 19 19 19 19 19 19 18 18 18 18 18 18 18 18 18 18 18
30 31 31 31 33 32 31 30 30 29 29 28 28 27 26 25 25 24 23 23 22 21 21 20 20 20 20 20 19 19 19 19 19 19 19 19 19 19 19 19 19 19 18 18 18 18 18 18 18
32 32 31 32 33 32 31 30 30 30 30 29 28 27 27 26 25 24 24 23 22 21 21 21 20 20 20 20 20 19 19 20 19 19 19 19 19 19 19 19 19 19 18 18 18 18 18 18 18
33 31 31 32 33 32 31 30 31 30 30 29 28 28 27 26 25 24 24 23 22 21 21 21 20 20 20 20 20 20 20 20 19 19 19 19 19 19 19 19 19 18 18 18 18 18 18 18 18
32 32 32 31 32 33 31 29 30 30 30 29 29 28 27 26 25 24 24 23 23 22 21 21 20 20 20 20 20 20 20 20 19 19 19 19 19 19 19 19 19 18 18 18 18 18 18 18 18
32 33 33 32 31 31 31 28 29 30 30 30 29 28 27 27 26 25 24 23 23 22 21 21 21 20 20 20 20 20 19 19 19 19 19 19 19 19 19 19 18 18 18 18 18 18 18 18 18
33 33 33 32 31 31 31 30 30 30 29 29 29 29 28 27 26 25 24 24 23 22 22 21 21 20 20 20 20 19 19 19 19 19 19 19 19 19 19 19 19 18 18 18 18 18 18 18 18
34 33 32 32 31 30 31 30 29 30 30 30 30 29 28 27 27 26 25 24 23 23 22 21 21 20 20 20 19 19 19 19 19 19 19 19 19 19 19 19 19 18 18 18 18 18 18 18 18
33 31 29 29 29 30 32 30 29 31 31 31 30 29 28 27 27 26 25 24 23 23 22 21 21 20 20 20 19 19 19 19 19 19 19 19 19 19 19 18 18 18 18 18 18 18 18 18 18
33 32 30 29 29 30 31 30 30 32 32 31 30 29 28 27 27 26 25 24 23 23 22 21 20 20 20 20 20 19 19 19 19 19 19 19 19 18 18 18 18 18 18 18 18 18 18 18 18
33 33 33 32 31 29 29 29 30 31 31 31 30 29 28 27 26 26 25 24 23 23 22 21 21 20 20 20 19 19 19 19 19 18 18 18 18 18 18 18 18 18 18 18 18 18 17 18 17
34 34 33 32 29 29 28 29 29 30 30 30 30 29 28 27 26 26 25 24 24 23 22 21 20 20 20 19 19 19 19 19 19 18 18 18 18 18 18 18 18 18 18 18 17 17 17 17 17
33 33 32 32 31 29 28 28 31 30 31 31 30 29 28 27 27 26 25 25 24 23 22 21 20 20 19 19 19 19 19 18 18 18 18 18 18 18 18 17 17 17 18 17 17 17 17 17 17
33 33 33 31 30 31 29 28 31 31 31 31 30 29 28 27 26 26 25 24 24 23 22 21 20 20 19 19 19 19 18 18 18 18 18 18 18 17 17 17 17 17 17 17 17 17 17 17 17
Wind_Speed
9 10 8 4 4 1 10 13 14 13 13 13 14 15 18 16 11 8 7 10 14 14 13 13 12 11 10 10 10 9 9 9 8 8 8 7 7 8 8 8 8 9 9 8 8 8 8 7 8
8 9 6 3 2 6 11 12 14 13 12 12 15 17 17 16 13 9 8 9 14 14 13 13 12 11 11 10 10 9 9 8 8 8 8 8 8 8 8 8 8 8 8 8 8 7 7 7 7
10 10 4 3 4 10 11 11 12 12 11 12 14 15 12 11 11 8 9 11 13 13 14 14 12 12 12 11 10 9 9 8 8 8 8 8 8 8 8 8 7 7 7 7 7 7 7 6 7
6 5 4 0 11 13 11 10 10 11 11 12 12 11 11 10 8 10 10 11 13 13 14 14 13 13 12 11 10 9 8 8 8 7 7 7 7 8 8 8 8 7 7 7 7 6 6 5 6
6 2 2 6 12 13 11 10 11 12 12 13 15 14 12 11 12 12 10 10 12 12 13 14 13 13 12 11 10 8 8 8 7 7 6 6 6 7 7 7 7 7 7 6 6 6 5 5 6
4 2 1 7 12 12 10 10 12 13 12 13 14 14 11 10 10 10 10 10 11 12 12 13 13 13 12 11 10 9 8 8 7 6 5 5 5 6 6 6 6 6 6 6 6 5 4 4 5
5 2 2 7 11 11 10 11 12 12 12 11 11 13 10 9 9 10 10 10 10 11 11 10 11 11 11 11 10 8 7 7 7 5 4 4 4 5 6 6 6 5 5 5 5 5 4 4 4
5 2 3 8 11 11 10 12 11 11 12 10 9 10 9 8 9 10 10 9 9 9 8 8 9 9 9 10 10 8 6 6 6 4 4 4 4 5 5 5 5 5 5 5 5 5 5 4 4
4 1 5 8 9 9 9 10 11 11 12 13 13 13 12 11 10 9 9 9 8 7 6 6 6 6 5 7 9 9 7 5 5 3 3 3 3 4 5 5 6 5 5 5 5 5 5 5 5
0 3 7 8 9 9 9 8 9 10 11 12 13 13 12 10 9 9 9 8 8 6 5 6 5 4 3 4 7 6 5 5 5 3 3 3 3 2 4 6 6 6 5 5 5 5 6 6 5
3 6 8 9 9 8 9 8 8 10 10 10 12 12 10 10 9 9 9 8 7 6 5 5 5 4 3 3 3 3 4 4 4 2 2 2 1 1 3 4 5 6 6 5 5 5 5 5 4
4 7 7 8 8 7 9 9 11 12 12 13 12 10 10 9 9 9 9 8 7 7 6 6 6 4 3 3 2 2 2 2 2 2 1 1 1 1 1 1 3 4 4 4 3 4 3 3 3
3 5 7 8 8 7 8 10 11 13 14 14 12 10 9 10 10 9 9 8 7 6 6 6 5 4 3 2 1 2 3 3 3 1 2 1 1 1 1 1 0 0 1 1 1 1 1 1 1
3 4 6 7 7 7 9 10 10 11 13 13 10 9 8 9 9 9 8 7 7 6 6 5 5 4 3 2 1 1 2 3 2 3 2 1 1 1 0 0 1 1 0 1 0 1 1 1 0
1 1 5 6 6 6 8 9 9 10 11 11 10 8 8 8 8 8 7 6 7 6 5 3 5 5 3 1 1 1 2 2 3 3 2 1 1 1 1 1 1 1 1 2 1 0 1 2 1
4 4 4 6 7 8 6 7 9 10 10 10 10 9 8 7 7 7 8 7 7 6 5 3 3 4 3 2 1 1 2 2 2 2 1 1 1 0 0 0 0 0 1 0 1 1 1 1 1
6 4 4 5 4 6 5 8 9 9 9 10 9 9 9 8 7 6 7 7 7 6 4 3 4 3 3 2 2 1 1 1 1 1 1 1 1 0 0 1 1 1 0 1 1 1 0 0 1
3 0 3 4 4 4 6 8 9 8 8 9 9 9 9 8 8 7 6 7 7 6 4 3 4 3 2 1 1 1 1 0 1 1 1 1 0 0 1 0 1 1 1 1 1 0 0 1 1
2 0 2 2 2 3 6 7 8 9 8 8 9 9 8 8 9 7 6 6 7 6 5 4 3 2 1 1 0 0 1 1 1 2 2 1 0 0 0 1 0 1 1 0 1 1 1 1 1
2 1 1 2 4 3 5 6 7 8 8 8 9 9 9 9 9 7 6 6 7 6 5 5 3 2 1 1 1 1 0 0 1 1 2 1 0 0 1 1 1 1 1 1 1 1 1 2 1
3 3 2 3 3 4 4 4 5 6 6 7 9 9 9 10 10 9 6 5 6 6 5 4 3 2 1 1 0 1 1 0 0 0 1 1 1 0 1 0 1 2 2 1 2 1 1 2 2
4 4 4 5 5 4 5 3 6 8 8 9 8 7 8 9 9 9 8 6 6 6 6 5 4 3 2 2 1 1 0 1 1 0 1 1 1 0 1 1 1 2 2 1 2 0 1 1 2
4 3 5 5 7 5 5 2 4 9 9 9 9 9 9 9 9 9 8 7 6 6 6 6 5 3 2 1 1 2 2 2 1 1 1 1 0 1 1 1 1 1 1 1 1 1 1 1 2
3 5 6 6 6 6 5 3 2 5 8 9 9 9 9 9 9 9 8 7 6 6 6 7 5 4 2 1 1 2 2 3 3 3 2 1 1 1 1 1 1 1 1 1 1 2 2 2 3
4 5 4 4 5 5 3 1 3 6 7 9 8 9 10 9 9 9 8 8 6 5 6 7 6 4 2 2 1 1 2 2 2 3 2 2 2 1 1 1 1 2 2 2 1 2 2 3 3
7 7 5 5 5 3 2 1 4 7 7 9 9 9 9 9 8 8 8 7 6 5 6 7 6 4 3 2 1 1 1 1 2 2 3 2 2 2 2 2 2 2 3 2 1 2 2 2 3
7 8 8 6 7 3 3 2 4 7 8 9 9 9 8 7 7 7 8 7 7 6 6 6 6 4 3 2 1 1 1 2 2 2 2 2 2 3 3 2 3 2 2 2 2 2 2 1 3
8 8 7 6 4 4 3 3 3 7 8 9 9 9 7 7 6 6 6 7 7 6 6 6 6 4 3 2 1 1 1 1 1 2 2 3 3 3 3 2 3 3 3 2 2 2 2 2 2
7 8 6 7 7 5 4 2 3 5 6 7 9 9 8 7 6 7 7 6 7 7 6 6 6 5 3 2 2 1 1 1 1 1 2 2 2 2 2 2 2 3 3 3 2 3 2 2 2
9 9 8 6 6 6 3 2 3 5 6 7 7 7 7 6 6 6 6 6 6 6 6 5 5 5 4 3 2 1 0 1 1 2 2 2 2 2 2 2 2 3 3 3 3 3 3 2 2
Wind_Direction
195 209 218 243 250 198 59 59 58 55 58 57 52 59 59 53 56 80 90 87 101 106 109 104 99 97 96 98 99 99 98 97 96 96 92 86 85 86 92 98 105 112 118 123 128 132 135 138 140
215 221 229 249 264 69 62 61 64 57 60 70 64 63 63 61 68 88 91 93 101 107 108 105 106 100 99 100 101 101 100 100 99 96 94 89 87 89 89 94 103 112 118 121 123 132 138 141 145
244 245 257 233 67 71 67 64 72 69 58 67 73 64 59 64 69 85 100 102 99 104 107 111 112 106 103 100 100 98 98 97 99 100 99 96 92 89 88 93 103 111 117 119 123 132 140 146 154
249 229 246 66 73 74 76 74 74 73 66 66 73 72 67 65 78 95 101 102 106 110 112 116 116 111 108 104 101 99 98 97 98 101 102 101 98 95 94 98 103 109 117 123 126 130 139 153 165
241 271 247 80 79 77 72 71 74 72 69 72 81 84 79 75 90 102 104 102 104 108 113 120 121 117 114 111 108 106 107 105 104 101 102 105 106 105 104 106 107 111 119 125 127 129 137 151 162
263 253 36 84 83 80 72 67 76 76 76 77 86 88 82 91 94 96 96 99 102 105 111 119 128 126 125 121 115 113 110 106 102 103 111 114 113 113 115 114 109 110 120 129 131 132 141 151 163
263 292 92 98 94 82 77 72 71 78 71 67 85 90 92 96 97 100 97 93 96 104 110 125 134 136 137 132 128 126 125 124 118 113 121 129 125 130 130 123 115 115 119 131 137 142 151 163 174
269 298 68 88 93 88 85 80 77 78 75 66 69 89 100 108 105 101 99 95 94 98 108 126 133 139 143 143 142 142 136 134 133 136 143 143 143 145 150 140 134 134 139 145 152 160 170 184 198
284 29 59 65 85 93 93 91 93 86 83 75 73 90 107 115 110 106 98 88 79 82 88 94 101 115 131 133 142 156 155 154 150 159 170 164 180 182 171 147 155 161 165 168 171 182 197 201 211
25 64 70 69 81 94 95 92 103 99 89 87 87 94 107 110 109 103 97 96 90 87 86 81 79 85 102 124 135 147 149 164 165 165 181 197 196 179 154 160 170 179 187 186 191 196 206 212 210
109 92 82 80 85 94 101 94 89 94 95 101 108 111 111 109 106 101 94 90 87 83 75 75 81 77 73 79 115 119 141 156 153 157 203 176 177 164 153 172 177 194 196 203 195 200 215 210 195
63 77 84 87 88 88 92 93 81 79 92 103 107 112 110 105 98 98 100 97 92 82 80 68 73 67 54 51 65 110 114 115 109 141 125 122 103 53 93 176 180 194 194 193 192 204 207 208 194
89 97 95 96 96 91 92 87 87 90 97 105 113 116 113 108 104 98 97 96 87 84 83 87 80 82 78 61 18 73 88 88 102 113 103 84 67 66 51 16 352 241 189 171 186 143 122 204 209
80 101 113 115 108 112 107 100 97 103 112 116 121 117 109 101 100 99 99 100 97 87 84 89 92 89 78 85 74 52 112 125 109 96 83 55 79 93 61 17 317 312 192 114 128 207 169 204 212
94 134 145 141 143 130 111 99 107 120 125 126 126 119 112 107 110 109 108 105 103 99 85 87 104 100 99 71 96 90 105 110 100 102 97 71 94 117 184 204 216 225 201 173 180 259 204 207 204
230 215 163 146 153 143 146 121 135 146 142 137 133 131 126 118 114 116 115 110 102 99 94 76 74 96 111 105 58 41 65 77 97 107 117 106 84 303 309 240 216 113 191 167 175 212 233 202 169
236 212 141 139 154 147 152 129 145 154 148 143 144 143 139 137 129 125 125 120 110 104 103 90 67 75 106 122 122 113 82 76 89 102 86 96 101 76 295 29 354 264 298 320 280 105 294 233 195
245 58 134 134 144 137 121 125 147 157 155 155 154 151 149 147 139 136 134 128 123 118 112 103 95 72 63 100 117 106 86 126 133 118 106 90 348 46 31 94 319 334 336 347 348 47 262 251 253
246 78 112 116 147 139 129 142 158 162 165 159 158 157 156 151 142 143 146 139 132 128 127 117 100 93 80 52 23 174 160 191 144 135 109 118 161 50 330 326 295 294 285 306 322 340 282 258 217
264 135 158 175 183 175 142 143 162 163 170 166 167 164 159 150 146 149 156 151 144 139 134 128 118 90 82 115 226 242 224 206 141 84 125 140 109 333 279 314 309 307 318 300 282 272 260 272 249
259 235 218 225 206 196 159 147 162 166 173 169 169 164 157 154 152 157 161 155 147 142 137 131 123 114 93 350 306 296 148 246 63 133 144 144 117 93 316 329 323 317 296 259 245 228 238 257 272
255 246 231 226 237 230 221 195 183 176 178 170 168 164 162 161 158 162 160 154 145 137 132 122 117 105 71 37 6 330 67 33 48 24 72 80 114 229 260 264 260 294 305 299 286 212 260 250 275
264 271 265 248 261 263 230 217 181 171 174 171 169 169 167 165 162 159 152 147 146 143 138 127 115 108 92 55 10 339 350 356 12 17 41 24 300 244 270 270 272 285 293 294 294 311 284 269 271
281 293 278 258 258 257 241 236 178 163 167 168 166 167 166 160 157 151 145 145 150 147 141 132 124 115 110 91 41 10 350 356 351 344 347 327 298 272 272 262 276 280 272 276 263 259 250 255 263
247 265 275 261 249 250 224 197 141 147 156 154 150 153 157 156 152 152 150 148 151 144 134 128 127 131 134 126 82 38 349 339 340 331 331 324 330 332 349 342 321 303 286 265 260 249 250 249 254
239 246 258 280 283 284 315 116 137 130 129 133 142 148 151 149 147 148 147 149 150 145 134 127 130 138 140 127 94 64 2 344 347 348 340 344 336 341 3 352 328 319 312 303 301 278 263 258 257
255 261 275 285 285 285 294 144 138 134 139 137 139 137 143 149 149 150 152 157 155 145 134 130 128 131 137 132 123 100 42 8 348 347 336 335 344 345 358 353 345 330 316 320 307 289 280 278 262
254 272 291 290 305 294 272 235 165 153 146 143 144 144 148 150 148 150 157 156 147 144 134 129 130 139 143 137 172 109 69 9 340 346 356 355 351 347 338 344 345 339 321 302 288 287 288 277 282
247 252 267 289 299 291 288 313 120 153 156 150 147 148 155 157 157 151 155 148 143 143 140 140 139 146 147 139 122 78 79 4 336 338 348 344 338 338 328 339 337 327 319 321 312 301 312 294 294
254 256 255 261 274 290 280 266 160 156 158 148 144 143 145 144 141 141 143 139 144 144 145 146 146 155 159 155 140 136 102 28 339 341 334 336 333 324 318 327 322 312 320 323 321 311 312 298 282
Height
1490 1490 1491 1494 1493 1491 1487 1480 1476 1476 1477 1479 1480 1480 1484 1488 1494 1505 1505 1503 1503 1503 1503 1504 1504 1504 1505 1505 1505 1506 1506 1507 1507 1508 1508 1508 1508 1508 1507 1506 1507 1508 1510 1512 1514 1516 1517 1518 1519
1490 1491 1494 1494 1493 1496 1493 1481 1480 1480 1480 1482 1483 1486 1488 1494 1498 1502 1504 1506 1505 1505 1505 1505 1506 1506 1506 1507 1507 1508 1508 1508 1509 1509 1509 1509 1509 1509 1509 1508 1509 1510 1511 1513 1515 1516 1517 1518 1519
1491 1493 1495 1490 1489 1493 1492 1482 1481 1481 1482 1483 1486 1490 1495 1500 1502 1504 1506 1507 1507 1507 1507 1507 1507 1507 1508 1508 1509 1509 1509 1510 1510 1510 1511 1511 1511 1510 1511 1511 1511 1512 1513 1514 1516 1517 1518 1518 1519
1493 1494 1492 1487 1489 1484 1483 1481 1481 1482 1484 1486 1488 1494 1500 1503 1504 1506 1507 1508 1508 1509 1508 1509 1509 1509 1510 1510 1510 1510 1511 1511 1511 1512 1512 1512 1513 1513 1513 1513 1513 1514 1515 1516 1517 1517 1518 1519 1519
1495 1494 1491 1489 1486 1482 1481 1482 1483 1485 1487 1489 1491 1498 1503 1506 1507 1508 1509 1509 1510 1510 1510 1511 1511 1511 1512 1512 1512 1512 1512 1512 1513 1513 1514 1514 1514 1514 1514 1515 1515 1516 1516 1517 1518 1518 1519 1519 1519
1495 1490 1495 1494 1488 1484 1484 1484 1485 1487 1489 1491 1495 1499 1506 1508 1508 1509 1510 1511 1511 1512 1512 1513 1513 1513 1513 1513 1513 1513 1514 1514 1514 1514 1515 1515 1516 1516 1516 1516 1517 1517 1518 1518 1519 1519 1520 1520 1521
1494 1490 1493 1489 1488 1488 1486 1487 1488 1489 1491 1494 1496 1501 1507 1509 1510 1511 1512 1512 1513 1513 1514 1514 1515 1515 1515 1515 1515 1515 1515 1516 1516 1516 1516 1517 1517 1517 1517 1518 1518 1518 1519 1520 1520 1520 1521 1521 1522
1490 1488 1488 1486 1489 1491 1487 1489 1491 1492 1495 1497 1498 1502 1508 1511 1511 1512 1513 1514 1515 1516 1515 1516 1516 1516 1517 1517 1517 1517 1517 1517 1517 1517 1518 1518 1518 1518 1519 1519 1520 1520 1520 1521 1521 1521 1522 1522 1522
1487 1489 1492 1487 1488 1489 1488 1490 1493 1495 1497 1499 1501 1504 1508 1511 1512 1513 1515 1516 1516 1517 1518 1518 1518 1518 1518 1519 1519 1519 1519 1519 1519 1519 1519 1519 1519 1519 1520 1520 1520 1521 1521 1522 1522 1522 1523 1523 1523
1487 1493 1489 1484 1485 1487 1489 1491 1492 1496 1498 1502 1505 1508 1510 1512 1513 1515 1516 1517 1518 1519 1519 1519 1519 1519 1520 1520 1520 1520 1520 1520 1520 1520 1520 1520 1520 1520 1521 1521 1521 1522 1522 1523 1523 1523 1523 1524 1524
1485 1488 1484 1485 1487 1488 1490 1492 1493 1495 1499 1504 1507 1509 1511 1513 1515 1516 1518 1519 1520 1520 1521 1521 1520 1520 1521 1521 1522 1522 1521 1521 1521 1521 1520 1520 1520 1521 1521 1522 1522 1522 1523 1523 1523 1523 1524 1524 1524
1484 1484 1485 1487 1489 1490 1491 1493 1496 1498 1502 1506 1509 1511 1513 1514 1516 1517 1519 1520 1521 1521 1522 1522 1521 1521 1521 1521 1522 1522 1523 1522 1522 1521 1521 1521 1521 1521 1522 1522 1523 1523 1523 1523 1523 1523 1524 1525 1525
1485 1486 1487 1489 1490 1492 1493 1495 1498 1502 1506 1508 1511 1513 1514 1516 1517 1519 1521 1522 1522 1523 1523 1522 1522 1522 1522 1522 1522 1523 1523 1523 1522 1522 1521 1521 1521 1521 1522 1523 1523 1524 1524 1524 1524 1524 1524 1525 1526
1486 1486 1487 1489 1491 1493 1494 1497 1500 1505 1507 1510 1512 1514 1515 1517 1519 1520 1522 1523 1523 1524 1523 1523 1523 1522 1522 1523 1523 1523 1524 1524 1523 1522 1522 1522 1522 1522 1522 1523 1523 1524 1524 1524 1524 1524 1524 1525 1525
1488 1489 1488 1489 1489 1492 1495 1500 1502 1506 1508 1510 1513 1515 1517 1519 1520 1521 1523 1524 1524 1524 1524 1523 1523 1523 1523 1523 1523 1524 1524 1524 1524 1523 1522 1522 1522 1522 1522 1523 1523 1523 1524 1524 1524 1524 1524 1525 1525
1490 1491 1494 1488 1487 1490 1497 1509 1503 1505 1507 1510 1513 1516 1518 1520 1521 1522 1523 1524 1525 1524 1524 1524 1524 1523 1523 1523 1524 1524 1524 1524 1524 1523 1523 1522 1522 1522 1523 1523 1523 1523 1523 1524 1524 1523 1524 1524 1524
1492 1495 1495 1490 1485 1487 1493 1503 1502 1503 1506 1509 1512 1515 1517 1520 1521 1523 1524 1525 1525 1525 1524 1524 1524 1524 1524 1524 1524 1524 1524 1524 1524 1524 1523 1523 1523 1523 1523 1522 1523 1523 1523 1523 1523 1523 1523 1523 1523
1497 1494 1493 1492 1485 1486 1492 1497 1499 1502 1504 1507 1510 1513 1516 1519 1521 1523 1524 1525 1525 1525 1525 1524 1524 1524 1524 1525 1525 1525 1525 1524 1524 1524 1523 1523 1523 1523 1523 1522 1522 1522 1522 1522 1522 1522 1522 1522 1523
1485 1490 1493 1490 1484 1487 1493 1497 1497 1499 1502 1505 1508 1511 1515 1518 1521 1523 1524 1525 1525 1525 1525 1525 1524 1524 1525 1525 1525 1525 1525 1525 1525 1524 1524 1523 1523 1523 1523 1522 1522 1522 1521 1521 1521 1521 1521 1521 1522
1483 1491 1493 1488 1483 1486 1492 1495 1494 1497 1500 1503 1506 1510 1513 1517 1520 1522 1524 1525 1525 1525 1525 1525 1525 1525 1525 1525 1525 1525 1525 1525 1525 1525 1524 1524 1523 1523 1523 1522 1522 1521 1521 1520 1520 1520 1520 1520 1521
1486 1488 1490 1491 1484 1484 1491 1501 1497 1496 1499 1502 1505 1508 1511 1515 1518 1521 1523 1524 1525 1525 1525 1525 1525 1525 1525 1525 1525 1525 1525 1525 1525 1525 1524 1524 1523 1522 1522 1521 1521 1520 1520 1519 1519 1519 1519 1519 1520
1490 1480 1482 1485 1491 1495 1492 1512 1500 1495 1497 1500 1503 1506 1509 1513 1517 1519 1521 1523 1524 1524 1524 1524 1525 1524 1524 1525 1525 1525 1525 1525 1525 1525 1524 1523 1523 1522 1521 1521 1520 1520 1519 1519 1519 1519 1518 1518 1518
1480 1477 1479 1483 1489 1494 1492 1501 1501 1492 1497 1498 1500 1503 1507 1511 1515 1518 1520 1522 1523 1524 1524 1524 1524 1524 1524 1524 1525 1525 1524 1525 1525 1524 1524 1523 1522 1521 1521 1520 1519 1519 1518 1518 1518 1518 1517 1517 1517
1475 1479 1481 1483 1490 1507 1494 1499 1505 1493 1493 1494 1497 1501 1505 1509 1513 1516 1518 1520 1522 1523 1524 1524 1524 1524 1524 1524 1524 1524 1524 1524 1524 1523 1523 1522 1521 1521 1520 1519 1519 1518 1518 1517 1517 1517 1516 1516 1516
1478 1491 1508 1512 1511 1506 1485 1495 1500 1486 1485 1490 1494 1499 1504 1507 1511 1514 1517 1519 1521 1522 1523 1523 1523 1523 1524 1524 1524 1523 1523 1523 1523 1522 1522 1521 1521 1520 1519 1518 1518 1517 1517 1516 1516 1515 1515 1515 1515
1478 1485 1508 1520 1516 1503 1489 1499 1493 1483 1485 1489 1494 1498 1502 1506 1509 1512 1515 1517 1519 1521 1522 1523 1523 1523 1523 1523 1523 1523 1523 1522 1522 1521 1521 1520 1520 1519 1518 1517 1517 1516 1515 1515 1514 1514 1514 1513 1513
1479 1480 1475 1489 1495 1507 1505 1497 1490 1482 1486 1489 1493 1498 1502 1505 1508 1511 1514 1516 1519 1520 1522 1522 1522 1523 1523 1523 1523 1523 1522 1521 1521 1521 1520 1519 1519 1518 1517 1516 1515 1514 1514 1513 1513 1512 1512 1512 1511
1470 1472 1478 1490 1509 1518 1512 1504 1500 1489 1488 1489 1492 1497 1501 1504 1508 1510 1513 1515 1517 1519 1520 1521 1521 1522 1522 1522 1522 1522 1521 1521 1520 1520 1519 1518 1517 1516 1516 1515 1514 1513 1512 1512 1511 1511 1511 1510 1510
1474 1475 1479 1484 1489 1508 1520 1511 1484 1487 1486 1487 1491 1496 1500 1503 1505 1509 1512 1514 1516 1518 1519 1520 1521 1521 1521 1521 1521 1521 1520 1520 1519 1519 1518 1517 1516 1515 1514 1513 1512 1511 1511 1510 1510 1509 1509 1508 1508
1469 1472 1476 1492 1496 1491 1503 1507 1481 1484 1484 1487 1491 1495 1499 1502 1505 1508 1510 1512 1515 1517 1518 1519 1520 1521 1520 1520 1520 1520 1520 1519 1518 1517 1516 1516 1514 1513 1513 1512 1511 1510 1509 1508 1508 1507 1507 1506 1506